Location: Unspecified
(0.0000°N, 0.0000°E)
Time: 21:45:32
(UTC+00:00)

DMSP B5D2-6 - Pass Details

Date: 18 October 2024
Orbit: 825 x 845 km, 98.8° (Epoch: 10 November)

Event Time Altitude Azimuth Distance (km) Brightness Sun altitude
Rises 18:56:52 0° 153° (SSE) 3,393 8.2 -17.7°
Reaches altitude 10° 18:59:22 10° 146° (SE) 2,459 7.4 -18.3°
Maximum altitude 19:04:28 41° 77° (ENE) 1,212 5.5 -19.5°
Drops below altitude 10° 19:09:32 10° 9° (N) 2,455 7.4 -20.8°
Sets 19:12:01 0° 2° (N) 3,387 8.2 -21.4°
